Home   Weather   Ilioupoli   Past weeks

Flag for Greece Past Weather in Ilioupoli, Greece — Yesterday and Last 2 Weeks

64 °F

Passing clouds.

Feels Like: 64 °F
Forecast: 58 / 73 °F
Wind: 24 mph from Northeast

Location: Eleftherios Venizelos International Airport

Current Time: Oct 25, 2016 at 6:32:00 PM

Latest Report: Oct 25, 2016 at 5:50 PM

Visibility: N/A

Pressure: 30.21 "Hg

Humidity: 52%

Dew Point: 46 °F

Location of IlioupoliLocation

Past Weather in Ilioupoli — Graph


Ilioupoli Temperature Yesterday

Maximum temperature yesterday: 73 °F (at 2:20 PM)
Minimum temperature yesterday: 61 °F (at 12:20 AM)
Average temperature yesterday: 66 °F

High & Low Weather Summary for the Past Weeks

High82 °F (Oct 12, 3:20 PM)94% (Oct 11, 4:20 AM)30.30 "Hg (Oct 11, 4:20 AM)
Low48 °F (Oct 14, 5:50 AM)35% (Oct 13, 10:20 AM)29.77 "Hg (Oct 11, 7:50 PM)
Average65 °F66%30.10 "Hg
* Reported Oct 10 5:20 PM — Oct 25 5:20 PM, Ilioupoli, Weather by CustomWeather, © 2016

Note: Actual official high and low records may vary slightly from our data, if they occured in-between our weather recording intervals... More about our weather records


Ilioupoli Weather History for the Previous 24 Hours

Scroll right to see more
Time TempWeatherWind HumidityBarometerVisibility
5:20 PM
Tue, Oct 25
66 °FPassing clouds.26 mph52%30.21 "HgN/A
4:50 PM68 °FPassing clouds.25 mph53%30.21 "HgN/A
4:20 PM68 °FPassing clouds.24 mph49%30.24 "HgN/A
3:50 PM68 °FPassing clouds.30 mph49%30.21 "HgN/A
3:20 PM68 °FPassing clouds.28 mph49%30.24 "HgN/A
2:50 PM68 °FPassing clouds.28 mph49%30.24 "HgN/A
2:20 PM68 °FPassing clouds.23 mph49%30.24 "HgN/A
1:50 PM68 °FPassing clouds.24 mph53%30.27 "HgN/A
1:20 PM68 °FPassing clouds.22 mph53%30.27 "HgN/A
12:50 PM66 °FPassing clouds.22 mph56%30.30 "HgN/A
12:20 PM66 °FPassing clouds.18 mph56%30.30 "HgN/A
11:50 AM66 °FPassing clouds.18 mph56%30.27 "HgN/A
11:20 AM66 °FPassing clouds.23 mph56%30.30 "HgN/A
10:50 AM66 °FPassing clouds.24 mph60%30.27 "HgN/A
10:20 AM63 °FPassing clouds.23 mph68%30.30 "HgN/A
9:50 AM63 °FScattered clouds.15 mph68%30.30 "HgN/A
9:20 AM63 °FScattered clouds.16 mph68%30.27 "HgN/A
8:50 AM63 °FScattered clouds.14 mph68%30.27 "HgN/A
8:20 AM63 °FScattered clouds.16 mph68%30.27 "HgN/A
7:50 AM61 °FScattered clouds.13 mph72%30.27 "HgN/A
7:20 AM61 °FPassing clouds.9 mph72%30.27 "HgN/A
6:50 AM61 °FPassing clouds.9 mph72%30.27 "HgN/A
6:20 AM61 °FPassing clouds.7 mph72%30.27 "HgN/A
5:50 AM63 °FPassing clouds.8 mph73%30.27 "HgN/A
5:20 AM61 °FPassing clouds.10 mph72%30.27 "HgN/A
4:50 AM61 °FPassing clouds.13 mph77%30.27 "HgN/A
4:20 AM63 °FPassing clouds.5 mph73%30.27 "HgN/A
3:50 AM63 °FPassing clouds.5 mph73%30.27 "HgN/A
3:20 AM63 °FPassing clouds.7 mph73%30.27 "HgN/A
2:50 AM63 °FPassing clouds.14 mph73%30.27 "HgN/A
1:50 AM63 °FPassing clouds.12 mph68%30.27 "HgN/A
1:20 AM63 °FPassing clouds.10 mph73%30.27 "HgN/A
12:50 AM64 °FPassing clouds.7 mph68%30.27 "HgN/A
12:20 AM64 °FPassing clouds.3 mph68%30.27 "HgN/A
11:50 PM
Mon, Oct 24
64 °FPassing clouds.6 mph68%30.27 "HgN/A
11:20 PM64 °FPassing clouds.7 mph68%30.27 "HgN/A
10:50 PM64 °FPassing clouds.10 mph64%30.27 "HgN/A
10:20 PM64 °FPassing clouds.12 mph64%30.27 "HgN/A
9:50 PM64 °FPassing clouds.10 mph60%30.27 "HgN/A
9:20 PM64 °FPassing clouds.7 mph60%30.27 "HgN/A
8:50 PM64 °FPassing clouds.5 mph64%30.27 "HgN/A
8:20 PM64 °FPassing clouds.8 mph64%30.27 "HgN/A
7:50 PM66 °FPassing clouds.6 mph60%30.27 "HgN/A
7:20 PM66 °FPassing clouds.10 mph56%30.24 "HgN/A
6:50 PM66 °FPassing clouds.15 mph56%30.24 "HgN/A
6:20 PM68 °FPassing clouds.17 mph53%30.24 "HgN/A
Weather by CustomWeather, © 2016

See weather overviewHow to use our weather pages